{"data":{"norad_id":61952,"epoch":"2026-05-25T00:04:03.364608Z","epoch_age_seconds":71505,"freshness":"FRESH","line1":"1 61952U 24209P   26145.00281672  .00016618  00000+0  57174-3 0  9992","line2":"2 61952  53.1593 147.7344 0001317  89.5509 270.5643 15.30211173 86587","mean_motion":15.30211173,"eccentricity":0.0001317,"inclination_deg":53.1593,"raan_deg":147.7344,"arg_perigee_deg":89.5509,"mean_anomaly_deg":270.5643,"bstar":0.00057174,"rev_number":8658,"period_min":94.10465858623,"perigee_km":474.27912698428,"apogee_km":476.08429113224,"semimajor_km":6853.3187090583,"source":"CELESTRAK","updated_at":"2026-05-25T13:38:19.488888Z"}}